PGT095 LBSF-LTFJ

Flight info

Callsign PGT095
Flight time N/A
Altitude 37000
Route RUMEN3S/09 RUMEN DCT PDV DCT ROVDO N739 ADORU UM19 IBODU
Aircraft A20N/M-SDE2E3FGHIRWXY/LB1

Departure

Time 2026-05-06 19:42
Airport Sofia Airport (LBSF)

Arrival

Time N/A
Airport Istanbul Sabiha Gökçen International Airport (LTFJ)
Time Latitude Longitude Altitude Speed Heading
2026-05-06 19:25 42.69063 23.41144 1748 ft 0 kts 340°
2026-05-06 19:37 42.69068 23.41141 1748 ft 4 kts 340°
2026-05-06 19:37 42.69135 23.41108 1740 ft 14 kts 334°
2026-05-06 19:37 42.69134 23.41065 1745 ft 11 kts 238°
2026-05-06 19:37 42.69082 23.40888 1744 ft 27 kts 252°
2026-05-06 19:38 42.69088 23.40618 1747 ft 32 kts 288°
2026-05-06 19:38 42.69160 23.40292 1742 ft 39 kts 287°
2026-05-06 19:38 42.69255 23.39925 1741 ft 42 kts 285°
2026-05-06 19:38 42.69322 23.39617 1740 ft 1 kts 281°
2026-05-06 19:39 42.69336 23.39577 1738 ft 9 kts 311°
2026-05-06 19:39 42.69426 23.39554 1743 ft 16 kts
2026-05-06 19:39 42.69546 23.39584 1740 ft 21 kts
2026-05-06 19:39 42.69715 23.39599 1745 ft 25 kts 12°
2026-05-06 19:40 42.69770 23.39641 1742 ft 0 kts 66°
2026-05-06 19:40 42.69768 23.39664 1746 ft 0 kts 95°
2026-05-06 19:41 42.69766 23.39696 1740 ft 6 kts 95°
2026-05-06 19:41 42.69744 23.40046 1747 ft 93 kts 95°
2026-05-06 19:42 42.69663 23.41472 1875 ft 180 kts 94°
2026-05-06 19:42 42.69589 23.42957 2489 ft 206 kts 95°
2026-05-06 19:42 42.69425 23.45648 3691 ft 241 kts 95°
2026-05-06 19:42 42.69283 23.47957 4965 ft 264 kts 97°
2026-05-06 19:43 42.69117 23.50577 6094 ft 292 kts 97°
2026-05-06 19:43 42.68941 23.53436 6995 ft 300 kts 96°
2026-05-06 19:43 42.68735 23.56057 7664 ft 264 kts 105°
2026-05-06 19:43 42.67984 23.58314 8381 ft 264 kts 128°
2026-05-06 19:44 42.66744 23.60082 9104 ft 277 kts 137°
2026-05-06 19:44 42.65391 23.62253 9935 ft 291 kts 126°
2026-05-06 19:44 42.64223 23.64548 10640 ft 311 kts 125°
2026-05-06 19:44 42.62939 23.67137 11376 ft 338 kts 124°
2026-05-06 19:45 42.61608 23.69827 12111 ft 350 kts 124°
2026-05-06 19:45 42.60235 23.72588 12855 ft 356 kts 124°
2026-05-06 19:45 42.58834 23.75392 13620 ft 361 kts 124°
2026-05-06 19:45 42.57417 23.78218 14331 ft 366 kts 124°
2026-05-06 19:46 42.56491 23.80061 14771 ft 368 kts 124°
2026-05-06 19:46 42.54981 23.83061 15501 ft 372 kts 124°
2026-05-06 19:46 42.53044 23.86904 16457 ft 378 kts 124°
2026-05-06 19:46 42.51542 23.89885 17203 ft 383 kts 124°
2026-05-06 19:47 42.50034 23.92874 17965 ft 388 kts 124°
2026-05-06 19:47 42.48501 23.95910 18692 ft 393 kts 124°
2026-05-06 19:47 42.46947 23.98984 19374 ft 399 kts 124°
2026-05-06 19:47 42.45954 24.00947 19815 ft 402 kts 124°
2026-05-06 19:48 42.44270 24.04272 20558 ft 407 kts 124°
2026-05-06 19:48 42.42657 24.07454 21283 ft 413 kts 124°
2026-05-06 19:48 42.41021 24.10676 22037 ft 418 kts 124°
2026-05-06 19:48 42.39384 24.13899 22704 ft 425 kts 124°
2026-05-06 19:49 42.37697 24.17214 22961 ft 427 kts 124°
2026-05-06 19:49 42.36014 24.20517 23002 ft 428 kts 124°
2026-05-06 19:49 42.34322 24.23835 23004 ft 429 kts 124°
2026-05-06 19:49 42.32626 24.27157 22998 ft 429 kts 124°
2026-05-06 19:50 42.30936 24.30464 22999 ft 429 kts 124°
2026-05-06 19:50 42.29350 24.33873 22997 ft 429 kts 120°
2026-05-06 19:50 42.27821 24.37332 22998 ft 429 kts 120°
2026-05-06 19:50 42.26291 24.40794 22991 ft 430 kts 120°
2026-05-06 19:51 42.24719 24.44345 22989 ft 430 kts 120°
2026-05-06 19:51 42.23199 24.47768 22990 ft 430 kts 120°
2026-05-06 19:51 42.21636 24.51279 22990 ft 430 kts 120°
2026-05-06 19:51 42.20124 24.54670 22984 ft 430 kts 120°
2026-05-06 19:52 42.18580 24.58129 22992 ft 430 kts 120°
2026-05-06 19:52 42.17039 24.61578 22993 ft 430 kts 120°
2026-05-06 19:52 42.15473 24.65076 22994 ft 430 kts 120°
2026-05-06 19:52 42.13939 24.68501 23226 ft 435 kts 120°
2026-05-06 19:53 42.12325 24.72100 24072 ft 438 kts 120°
2026-05-06 19:53 42.10758 24.75588 24812 ft 443 kts 120°
2026-05-06 19:53 42.09137 24.79194 25496 ft 448 kts 120°
2026-05-06 19:53 42.07514 24.82806 26161 ft 454 kts 119°
2026-05-06 19:54 42.06105 24.86619 26812 ft 457 kts 110°
2026-05-06 19:54 42.05121 24.90718 27450 ft 460 kts 101°
2026-05-06 19:54 42.04582 24.94951 28058 ft 463 kts 95°
2026-05-06 19:54 42.04166 24.99266 28652 ft 468 kts 95°
2026-05-06 19:55 42.03737 25.03625 29233 ft 473 kts 95°
2026-05-06 19:55 42.03296 25.08028 29779 ft 477 kts 95°
2026-05-06 19:55 42.02845 25.12476 30303 ft 481 kts 95°
2026-05-06 19:55 42.02388 25.16951 30837 ft 484 kts 95°
2026-05-06 19:56 42.01949 25.21231 31370 ft 486 kts 95°
2026-05-06 19:56 42.01438 25.26191 32103 ft 485 kts 95°
2026-05-06 19:56 42.01021 25.30212 32741 ft 483 kts 95°
2026-05-06 19:56 42.00557 25.34677 33461 ft 481 kts 95°
2026-05-06 19:57 42.00093 25.39117 34165 ft 478 kts 95°
2026-05-06 19:57 41.99630 25.43545 34752 ft 477 kts 95°
2026-05-06 19:57 41.99167 25.47949 35303 ft 476 kts 95°
2026-05-06 19:57 41.98706 25.52322 35849 ft 474 kts 95°
2026-05-06 19:58 41.98244 25.56684 36378 ft 473 kts 95°
2026-05-06 19:58 41.97777 25.61085 36839 ft 472 kts 95°
2026-05-06 19:58 41.97312 25.65434 37003 ft 470 kts 95°
2026-05-06 19:58 41.96855 25.69697 37014 ft 469 kts 95°
2026-05-06 19:59 41.95923 25.78365 37018 ft 469 kts 95°
2026-05-06 19:59 41.94977 25.87093 37019 ft 469 kts 95°
2026-05-06 20:00 41.94029 25.95766 37041 ft 469 kts 95°
2026-05-06 20:00 41.93068 26.04492 37030 ft 469 kts 95°
2026-05-06 20:01 41.92101 26.13227 37030 ft 469 kts 95°
2026-05-06 20:01 41.91115 26.22060 37033 ft 469 kts 95°
2026-05-06 20:02 41.90142 26.30714 37029 ft 469 kts 95°
2026-05-06 20:02 41.89161 26.39370 37031 ft 469 kts 95°
2026-05-06 20:03 41.88169 26.48086 36899 ft 470 kts 95°
2026-05-06 20:03 41.87616 26.52412 36633 ft 473 kts 100°
2026-05-06 20:03 41.86550 26.56603 36380 ft 479 kts 112°
2026-05-06 20:04 41.84878 26.60488 36139 ft 484 kts 124°
2026-05-06 20:04 41.82744 26.64017 35888 ft 489 kts 128°
2026-05-06 20:04 41.80566 26.67519 35639 ft 489 kts 128°
2026-05-06 20:04 41.78389 26.71027 35388 ft 490 kts 128°
2026-05-06 20:05 41.76204 26.74552 35149 ft 491 kts 128°
2026-05-06 20:05 41.74029 26.78059 34895 ft 493 kts 128°
2026-05-06 20:05 41.71798 26.81652 34646 ft 494 kts 128°
2026-05-06 20:05 41.69630 26.85141 34414 ft 495 kts 128°
2026-05-06 20:06 41.67421 26.88690 34213 ft 498 kts 127°
2026-05-06 20:06 41.65197 26.92261 33953 ft 500 kts 127°
2026-05-06 20:06 41.62917 26.95916 33670 ft 499 kts 127°
2026-05-06 20:06 41.60714 26.99444 33407 ft 499 kts 127°
2026-05-06 20:07 41.58485 27.03008 33144 ft 500 kts 127°
2026-05-06 20:07 41.57016 27.05355 32970 ft 500 kts 127°
2026-05-06 20:07 41.53905 27.09989 32615 ft 502 kts 132°
2026-05-06 20:07 41.51463 27.13317 32353 ft 502 kts 132°
2026-05-06 20:08 41.49071 27.16584 32106 ft 502 kts 132°
2026-05-06 20:08 41.46577 27.19990 31861 ft 506 kts 132°
2026-05-06 20:08 41.44948 27.22214 31695 ft 506 kts 132°
2026-05-06 20:08 41.42443 27.25630 31444 ft 506 kts 132°
2026-05-06 20:09 41.39826 27.29193 31175 ft 506 kts 132°
2026-05-06 20:09 41.37565 27.32269 30949 ft 506 kts 132°
2026-05-06 20:09 41.35099 27.35619 30706 ft 506 kts 132°
2026-05-06 20:09 41.32643 27.38951 30189 ft 504 kts 132°
2026-05-06 20:10 41.29386 27.43365 28929 ft 502 kts 132°
2026-05-06 20:10 41.27762 27.45562 28442 ft 496 kts 132°
2026-05-06 20:10 41.25456 27.48839 27676 ft 486 kts 125°
2026-05-06 20:10 41.23618 27.52601 27100 ft 467 kts 112°
2026-05-06 20:11 41.22362 27.56492 26823 ft 456 kts 107°
2026-05-06 20:11 41.21174 27.60418 26573 ft 460 kts 107°
2026-05-06 20:11 41.19961 27.64397 26012 ft 460 kts 108°
2026-05-06 20:11 41.18774 27.68276 25389 ft 454 kts 108°
2026-05-06 20:12 41.17575 27.72179 25177 ft 440 kts 108°
2026-05-06 20:12 41.16441 27.75882 25106 ft 446 kts 108°
2026-05-06 20:12 41.15272 27.79697 25101 ft 446 kts 108°
2026-05-06 20:12 41.14098 27.83523 25105 ft 446 kts 108°
2026-05-06 20:13 41.12915 27.87367 25105 ft 446 kts 108°
2026-05-06 20:13 41.11743 27.91173 25102 ft 446 kts 108°
2026-05-06 20:13 41.10537 27.95081 25102 ft 446 kts 108°
2026-05-06 20:13 41.09380 27.98825 25102 ft 446 kts 108°
2026-05-06 20:14 41.08192 28.02664 25102 ft 446 kts 108°
2026-05-06 20:14 41.06998 28.06517 25113 ft 446 kts 108°
2026-05-06 20:14 41.05833 28.10270 24951 ft 443 kts 108°
2026-05-06 20:14 41.04663 28.14038 24263 ft 443 kts 108°
2026-05-06 20:15 41.03484 28.17836 23157 ft 447 kts 108°
2026-05-06 20:15 41.02286 28.21686 22061 ft 446 kts 109°
2026-05-06 20:15 41.01100 28.25504 21072 ft 438 kts 108°
2026-05-06 20:15 40.99959 28.29197 20070 ft 430 kts 109°
2026-05-06 20:16 40.98806 28.32923 19059 ft 423 kts 109°
2026-05-06 20:16 40.97633 28.36637 18252 ft 419 kts 110°
2026-05-06 20:16 40.96554 28.40022 17428 ft 412 kts 110°
2026-05-06 20:16 40.95417 28.43613 16523 ft 406 kts 110°
2026-05-06 20:17 40.94271 28.47247 15595 ft 400 kts 110°
2026-05-06 20:17 40.93300 28.50334 14844 ft 395 kts 110°
2026-05-06 20:17 40.92253 28.53657 14046 ft 389 kts 110°
2026-05-06 20:17 40.91216 28.56944 13182 ft 384 kts 110°
2026-05-06 20:18 40.90194 28.60176 12197 ft 376 kts 110°
2026-05-06 20:18 40.89193 28.63339 10970 ft 371 kts 110°
2026-05-06 20:18 40.88203 28.66463 10034 ft 362 kts 110°
2026-05-06 20:18 40.87261 28.69419 9678 ft 335 kts 110°
2026-05-06 20:19 40.86390 28.72150 9402 ft 311 kts 110°
2026-05-06 20:19 40.85556 28.74768 8770 ft 302 kts 110°
2026-05-06 20:19 40.84749 28.77318 8004 ft 300 kts 110°
2026-05-06 20:19 40.83936 28.79885 7263 ft 299 kts 110°
2026-05-06 20:20 40.83153 28.82348 6568 ft 297 kts 110°
2026-05-06 20:20 40.82360 28.84842 5852 ft 294 kts 111°
2026-05-06 20:20 40.81565 28.87340 5174 ft 290 kts 111°
2026-05-06 20:20 40.80797 28.89753 4541 ft 286 kts 112°
2026-05-06 20:21 40.80051 28.92085 4286 ft 265 kts 112°
2026-05-06 20:21 40.79349 28.94275 4067 ft 250 kts 112°
2026-05-06 20:21 40.78668 28.96396 3996 ft 255 kts 112°
2026-05-06 20:21 40.77976 28.98552 3977 ft 253 kts 112°
2026-05-06 20:22 40.77434 29.00751 3976 ft 251 kts 92°
2026-05-06 20:22 40.77826 29.02915 3979 ft 249 kts 55°
2026-05-06 20:22 40.78921 29.04638 3989 ft 243 kts 44°
2026-05-06 20:22 40.80085 29.06257 3991 ft 243 kts 44°
2026-05-06 20:23 40.81204 29.07999 3992 ft 244 kts 52°
2026-05-06 20:23 40.82085 29.09871 3987 ft 246 kts 59°
2026-05-06 20:23 40.82825 29.11793 3708 ft 244 kts 63°
2026-05-06 20:23 40.83502 29.13656 3346 ft 243 kts 62°
2026-05-06 20:24 40.84278 29.15767 2931 ft 229 kts 63°
2026-05-06 20:24 40.84941 29.17564 2600 ft 208 kts 63°
2026-05-06 20:24 40.85506 29.19101 2310 ft 179 kts 63°
2026-05-06 20:24 40.86006 29.20460 2047 ft 152 kts 63°
2026-05-06 20:25 40.86472 29.21718 1795 ft 148 kts 63°
2026-05-06 20:25 40.86940 29.22958 1547 ft 145 kts 62°
2026-05-06 20:25 40.87362 29.24091 1318 ft 141 kts 63°
2026-05-06 20:25 40.87774 29.25242 1104 ft 137 kts 64°
2026-05-06 20:26 40.88183 29.26386 879 ft 133 kts 64°
2026-05-06 20:26 40.88588 29.27483 672 ft 132 kts 63°
2026-05-06 20:26 40.88999 29.28585 477 ft 132 kts 63°
2026-05-06 20:26 40.89400 29.29684 332 ft 125 kts 63°
2026-05-06 20:27 40.89645 29.30346 327 ft 107 kts 63°
2026-05-06 20:27 40.89942 29.31146 316 ft 89 kts 63°
2026-05-06 20:27 40.90148 29.31720 316 ft 61 kts 65°